Regional Weather Roundup
Issued by NWS Northern Indiana

Home | Current Version | Previous Version | Graphics & Text | Print | Product List | Glossary On
Versions: 1 2 3 4 5 6 7 8 9 10 11 12 13 14 15 16 17 18 19 20 21 22 23 24 25 26 27 28 29 30 31 32 33 34 35 36 37 38 39 40 41 42 43 44 45 46 47 48 49 50
000
ASUS43 KIWX 010100
RWRIWX

KIWX WEATHER ROUNDUP
NATIONAL WEATHER SERVICE NORTHERN INDIANA
800 PM EST SAT JAN 31 2015

NOTE: "FAIR" INDICATES FEW OR NO CLOUDS BELOW 12,000 FEET WITH NO
SIGNIFICANT WEATHER AND/OR OBSTRUCTIONS TO VISIBILITY.

* THESE STATIONS ARE NOT UNDER NWS QUALITY CONTROL. THEY ALSO MAY NOT
  REPORT WEATHER SUCH AS PRECIPITATION OR FOG.

INZ001>027-010200-
NORTHERN INDIANA

CITY           SKY/WX    TMP DP  RH WIND       PRES   REMARKS
GARY*          CLOUDY    37  28  70 SW6       30.19S
SOUTH BEND     CLOUDY    35  28  75 SW5       30.18S WCI  31
GOSHEN         CLOUDY    34  28  79 SW7       30.18S WCI  28
ANGOLA*        CLOUDY    34  27  75 SW3       30.17S
FORT WAYNE     CLOUDY    34  28  79 SW8       30.20F WCI  27

$$
INZ028>050-010200-
CENTRAL INDIANA

CITY           SKY/WX    TMP DP  RH WIND       PRES   REMARKS
LAFAYETTE      LGT SNOW  32  31  96 SW8       30.23S FOG     WCI  25
KOKOMO*        CLOUDY    36  27  69 SW9       30.21F
MUNCIE*        CLOUDY    36  24  62 SW8       30.22S
INDIANAPOLIS   LGT SNOW  30  29  96 SW9       30.25S FOG     WCI  22

$$
MIZ043>046-050>051-056>058-064>065-071>073-077>080-010200-
SOUTHWEST LOWER MICHIGAN

CITY           SKY/WX    TMP DP  RH WIND       PRES   REMARKS
BATTLE CREEK   CLOUDY    31  22  69 W5        30.16F WCI  26
BENTON HARBOR  CLOUDY    31  27  85 CALM      30.18F
COLDWATER*     MOCLDY    31  25  78 SW3       30.16S
HILLSDALE*     CLOUDY    31  22  69 CALM      30.16S
HOLLAND        CLOUDY    32  24  72 NW3       30.19S
GRAND RAPIDS   CLOUDY    31  24  75 NW6       30.18R WCI  25
KALAMAZOO      CLOUDY    28  21  75 CALM      30.17F
STURGIS*       CLOUDY    34  28  80 CALM      30.17S
THREE RIVERS*  CLOUDY    34  25  70 CALM      30.17F

$$
OHZ001>008-015>018-024>025-010200-
NORTHWEST OHIO

CITY           SKY/WX    TMP DP  RH WIND       PRES   REMARKS
DEFIANCE       CLOUDY    34  27  75 SW6       30.20S WCI  29
FINDLAY        CLOUDY    33  25  72 S9        30.20S WCI  25
TOLEDO EXPRESS FAIR      29  24  82 S3        30.20R
TOLEDO METCALF FAIR      29  23  78 S6        30.21S WCI  23
LIMA           CLOUDY    35  25  66 SW7       30.21R WCI  29

$$
AND FOR LAKE MICHIGAN COASTAL AND OPEN LAKE BUOY OBSERVATIONS

STATION/POSITION TEMP    WIND        PRES    VSBY  WAVE
                 AIR SEA DIR/SP/G                  HT/PER
                 (F)     (DEG/KT/KT) (MB)    (MI)  (FT/S)
CALUMET HARBOR    36     270/  3/  4   N/A
MICHIGAN CITY     34     190/  2/  2   N/A
SAINT JOSEPH      33      20/  1/  4 1022.0S

$$
&&



USA.gov is the U.S. government's official web portal to all federal, state and local government web resources and services.